RH
31 30 28 26 22 16 15 17 22 30 36 38 38 34 29 23 17 12 12 16 22 25 25 28 29 24 22 21 20 31 43 39 29 24 25 31 41 49 51 47 44 43 41 37 36 38 40 41 43 48 50 52 56 55 49 43 36 30 25 24 24 24 28 34 36 36 37 39 42 42 35 25 20 19 19 19 19 20 20 20 19 19 19 20 20
36 37 35 31 25 17 13 14 17 22 29 34 37 37 34 32 28 22 18 20 28 29 25 27 30 26 23 20 20 33 41 33 25 24 28 36 45 48 46 43 41 39 35 36 41 48 50 49 49 51 51 52 57 60 57 50 43 36 30 27 26 26 29 31 28 26 25 25 27 29 28 24 20 19 20 20 20 20 21 21 20 20 19 19 20
40 42 40 33 25 17 12 12 14 16 21 27 33 37 37 37 37 33 27 28 35 35 28 28 29 27 25 19 21 33 38 31 26 27 34 43 47 45 41 40 38 35 35 41 50 56 58 57 57 55 51 47 48 52 54 51 47 40 34 31 29 28 30 29 25 23 22 20 19 19 20 20 20 21 21 21 21 22 22 22 22 20 20 19 20
44 45 43 37 32 26 19 14 13 14 16 19 25 32 37 39 40 38 35 38 45 43 33 29 29 28 26 21 21 33 36 29 27 31 42 51 49 43 41 39 36 36 41 46 50 56 61 63 63 60 51 43 44 51 53 49 47 43 37 33 31 30 28 26 24 22 21 21 20 20 21 22 22 22 22 23 23 23 23 22 21 20 20 20 20
47 49 46 42 38 34 28 20 15 14 15 14 16 23 31 37 39 38 40 46 54 51 38 31 29 29 28 22 21 31 34 29 29 36 48 55 50 43 41 39 38 42 47 47 49 56 62 64 63 62 56 45 43 53 57 52 47 44 41 36 32 31 28 25 24 23 23 23 23 23 24 23 24 24 23 23 23 22 22 22 21 20 20 20 20
50 52 50 45 42 39 36 31 22 18 19 20 17 16 21 29 35 39 44 52 61 59 45 34 30 30 29 24 22 29 32 28 30 40 52 55 48 44 43 41 42 49 51 50 54 58 60 62 64 66 65 56 48 48 52 51 47 43 42 38 33 32 30 28 27 26 25 26 25 25 25 24 25 24 23 23 22 22 22 22 21 20 20 21 21
54 55 52 48 44 43 44 44 38 27 25 28 25 18 15 18 25 33 43 53 63 63 50 36 30 30 29 24 22 28 30 27 30 43 54 52 46 45 44 42 47 54 55 55 59 60 59 61 65 67 71 72 65 54 47 45 44 41 39 37 34 33 31 29 28 27 26 27 26 26 25 25 25 24 23 23 23 23 22 21 20 20 21 21 20
56 56 53 48 46 47 50 54 52 42 34 31 28 23 18 15 16 22 29 43 59 64 54 38 30 30 29 23 23 27 28 27 32 46 55 50 45 45 43 42 48 54 56 57 60 61 58 59 65 70 75 76 72 62 52 44 39 38 38 36 33 32 30 28 27 26 26 26 26 25 25 26 25 24 23 22 22 23 23 21 20 21 22 20 19
54 54 52 46 45 49 52 55 56 51 42 33 28 28 25 19 18 19 23 35 53 61 52 39 30 28 26 22 22 26 28 28 36 50 56 50 44 44 43 43 48 53 56 58 60 60 57 56 64 72 77 75 66 59 54 45 36 35 36 34 31 30 29 27 26 26 26 26 27 26 26 26 25 22 21 20 21 22 23 22 21 21 21 19 19
58 57 53 48 48 51 53 55 57 55 48 40 33 29 27 24 22 23 26 34 46 48 40 32 27 24 23 20 21 26 29 30 40 53 57 51 46 44 42 43 48 53 56 58 59 57 54 56 63 69 73 75 66 55 53 51 43 37 33 30 29 29 28 27 26 26 26 26 27 26 25 25 23 20 20 20 20 21 23 23 21 20 18 16 18
68 66 61 56 55 53 51 53 55 54 52 49 43 35 30 28 25 24 24 27 30 29 25 23 22 21 20 19 21 28 29 32 44 56 58 55 49 42 38 42 51 57 58 58 57 57 55 54 56 61 67 71 64 52 50 51 45 38 32 29 30 30 29 28 26 26 26 26 26 25 23 22 20 19 18 19 21 22 22 21 18 17 17 17 20
73 73 68 62 58 56 53 53 54 54 55 54 52 48 42 35 30 27 25 23 23 21 18 18 19 21 20 19 23 29 29 34 48 57 59 57 48 39 38 46 56 59 59 58 56 57 56 53 59 71 76 73 63 53 50 49 41 36 34 31 31 31 30 27 26 26 25 25 24 23 19 18 18 18 18 20 22 21 19 18 17 17 19 19 22
75 75 72 65 61 60 60 59 57 57 58 58 57 55 51 46 42 36 31 28 25 21 19 17 17 20 20 19 25 30 31 38 51 58 60 56 47 40 43 51 59 59 59 60 57 54 54 54 62 75 78 72 63 56 53 52 45 39 36 33 33 33 30 27 26 26 25 23 21 19 16 16 17 19 20 21 21 19 17 18 19 19 21 24 29
77 76 76 70 65 65 65 64 62 60 60 62 61 57 54 53 53 49 44 38 30 23 21 20 19 20 20 21 26 31 34 44 55 59 60 56 47 43 47 54 60 60 61 65 61 55 55 53 53 63 72 70 61 53 52 52 47 40 36 34 33 32 28 26 25 25 23 19 17 16 15 16 18 20 20 19 18 17 18 20 22 25 29 34 38
75 75 76 74 70 68 68 69 69 68 66 65 63 60 57 55 57 56 54 50 42 32 25 22 21 22 21 22 26 31 37 48 55 57 59 56 49 46 49 55 61 63 66 70 67 61 59 56 54 62 70 66 55 49 51 50 45 39 35 32 31 30 27 25 23 21 18 16 15 15 16 17 19 19 18 17 17 17 19 23 29 35 38 39 36
72 74 76 76 74 73 73 74 76 78 78 74 70 66 61 58 59 60 58 57 53 43 32 25 24 24 24 24 26 30 39 47 51 54 58 58 52 48 51 57 61 65 71 74 71 66 64 61 60 61 60 56 52 51 50 48 44 40 35 32 30 29 25 23 21 18 16 15 15 16 17 18 18 17 16 16 16 17 23 31 38 39 37 30 24
72 76 78 78 77 76 75 76 78 81 83 82 79 75 70 64 61 61 61 60 58 52 42 32 27 26 27 26 26 32 41 48 49 53 59 59 54 52 54 58 59 65 75 77 73 71 69 65 62 59 54 50 49 49 48 47 45 41 36 33 29 26 22 20 18 17 15 15 16 16 17 17 16 14 13 14 17 25 33 39 38 32 24 16 11
74 77 78 78 79 79 78 78 81 83 84 83 79 78 76 70 65 63 62 60 59 58 52 43 34 29 28 29 29 34 44 51 51 53 58 59 56 56 58 59 60 67 77 80 77 77 77 72 65 59 53 47 45 46 49 49 45 41 37 32 27 23 20 18 16 16 15 15 16 16 16 15 13 11 12 18 28 36 39 35 27 18 11 6 4
76 80 79 81 83 82 82 82 82 81 82 83 81 80 79 76 71 69 66 62 60 59 57 50 42 34 30 29 30 34 43 53 53 52 57 61 60 58 60 62 66 73 80 81 78 81 83 78 69 59 51 47 46 49 54 54 49 43 36 30 25 21 18 16 15 15 15 15 16 15 13 11 9 11 19 29 35 35 30 22 14 8 5 4 4
80 88 86 85 83 81 82 82 81 79 79 80 81 82 83 81 78 76 72 65 61 60 60 57 52 44 36 30 30 33 39 50 54 52 55 60 60 58 61 69 75 77 76 75 79 85 84 78 71 60 49 46 46 51 58 60 55 45 35 27 22 18 16 15 15 15 15 15 14 12 9 7 10 19 28 32 29 24 18 11 6 4 4 5 6
80 86 82 79 80 81 82 83 85 84 80 78 78 81 84 83 78 75 74 70 65 62 61 60 58 53 44 34 31 31 36 45 52 52 53 58 59 57 63 77 82 72 63 68 79 83 81 78 71 59 49 47 48 52 61 65 59 47 33 22 18 16 15 15 15 15 15 13 10 8 7 9 16 23 26 24 20 15 10 5 4 5 6 7 7
72 74 72 74 77 77 74 75 78 78 77 76 77 77 79 80 77 71 68 67 67 65 63 62 62 60 55 45 36 31 33 41 48 51 52 56 57 57 66 83 84 63 51 64 75 74 75 78 71 60 53 52 52 55 63 68 63 48 30 18 16 16 15 15 15 15 13 10 7 7 8 13 17 19 19 17 13 9 5 4 5 6 7 8 9
62 64 66 69 69 64 61 62 65 68 71 75 78 73 68 71 75 75 70 67 67 65 61 60 64 67 65 58 48 38 33 34 42 50 53 53 54 57 67 85 85 62 48 55 61 62 70 75 70 64 61 57 54 57 64 68 62 44 26 17 16 16 15 15 15 14 10 7 6 8 11 13 14 14 14 13 9 5 4 5 6 7 9 10 10
54 54 53 54 54 52 52 55 58 60 62 67 72 70 65 62 61 64 67 68 68 68 64 61 65 69 69 64 58 49 40 36 39 47 52 53 53 56 67 83 85 66 50 47 47 53 66 71 70 70 67 60 58 60 64 66 58 39 22 16 16 16 15 16 14 10 7 6 7 9 10 10 10 11 11 8 5 4 5 6 7 9 10 10 10
49 48 48 48 48 48 50 51 53 55 55 58 60 63 68 69 63 61 65 67 67 68 67 64 65 68 69 67 63 55 46 40 39 45 53 55 53 55 68 83 84 73 62 53 46 49 60 68 73 75 68 62 62 63 66 66 52 32 19 16 17 16 16 14 12 8 6 7 7 8 8 8 9 10 8 6 4 4 6 8 9 9 10 10 10
45 44 43 43 45 47 49 49 51 52 53 52 50 51 60 67 67 66 67 64 61 60 60 59 61 64 67 70 67 58 49 43 42 46 53 58 56 60 71 80 79 74 68 57 47 48 59 70 76 74 67 63 63 63 66 63 44 24 17 17 16 16 15 12 9 7 6 7 7 6 6 7 9 9 6 4 4 5 7 9 9 9 9 10 10
37 36 37 39 42 45 47 48 49 48 46 44 42 43 49 55 58 59 60 60 63 64 63 61 60 61 65 70 70 62 53 49 49 51 54 58 63 69 75 77 78 75 71 63 52 49 61 74 74 68 65 64 62 64 67 58 36 19 17 18 16 16 13 9 6 6 6 6 6 5 6 7 8 6 4 4 5 7 8 8 8 8 9 10 12
34 37 39 41 42 43 43 43 44 43 42 42 41 42 44 46 47 48 49 53 61 70 77 77 72 68 68 72 75 73 64 55 52 55 61 65 70 76 78 78 81 80 78 79 68 53 57 69 66 62 66 65 61 67 67 51 29 18 18 18 16 14 10 7 6 6 6 5 5 5 6 7 6 5 4 4 6 7 7 7 7 7 9 11 13
40 42 44 43 44 44 44 44 45 44 43 44 44 45 45 44 43 42 43 45 50 61 75 82 79 75 71 69 74 78 73 64 57 57 65 71 76 80 76 73 79 81 80 88 84 61 53 59 58 60 70 69 64 70 65 43 24 19 18 17 15 11 8 6 6 6 5 5 5 5 6 6 5 4 4 5 6 7 6 6 6 7 9 12 14
41 44 45 45 45 44 44 44 44 43 43 44 45 47 47 46 45 43 44 46 46 49 58 66 71 76 75 71 71 71 71 70 65 61 65 71 75 77 69 64 75 82 81 91 91 69 56 59 60 66 77 74 69 73 61 35 21 19 18 16 13 9 7 6 6 5 5 4 5 5 5 5 4 4 5 6 6 6 5 5 6 7 9 12 15
35 36 38 38 38 38 38 38 37 37 39 40 41 41 40 40 41 42 44 47 47 47 50 55 62 70 73 72 71 70 72 77 76 73 74 74 72 71 66 64 75 83 87 95 89 67 58 59 57 66 81 79 75 75 57 29 19 19 17 14 11 7 7 6 5 5 5 5 5 5 4 4 4 4 6 7 6 6 5 6 7 8 9 12 14
32 34 35 35 34 33 32 32 33 34 36 36 35 34 33 32 33 35 37 40 43 45 49 52 55 61 63 63 65 68 75 81 82 83 87 85 78 73 70 69 73 80 91 96 80 60 60 59 53 66 84 82 78 75 52 24 18 19 16 12 9 6 6 6 5 5 5 4 5 5 4 4 4 5 6 7 6 5 6 7 8 9 9 11 12
32 37 37 34 33 32 30 30 31 32 33 33 33 33 31 28 26 26 28 31 34 36 41 47 51 53 53 56 61 69 77 83 81 78 81 82 80 77 76 74 72 77 89 91 71 55 55 56 59 76 86 81 80 74 45 20 18 19 14 10 7 5 6 6 5 5 5 4 5 4 3 3 5 6 7 6 6 6 7 9 9 10 10 11 11
35 39 37 33 32 31 30 31 32 32 33 33 31 28 25 23 22 22 24 27 28 29 30 34 39 44 49 53 58 63 69 77 79 77 76 78 79 80 81 79 76 79 87 89 78 62 50 49 64 82 85 82 82 65 34 18 19 17 11 8 7 5 6 5 5 5 5 4 4 4 3 4 5 6 7 6 6 7 9 10 11 11 12 12 12
36 38 37 35 33 31 31 32 33 33 32 28 24 25 29 32 34 34 35 36 38 39 36 31 35 46 54 58 62 67 71 74 76 74 73 76 80 84 86 86 83 81 82 86 88 75 52 46 66 84 86 82 72 46 22 18 18 13 9 8 6 5 6 5 5 5 4 4 4 3 3 4 5 6 7 6 6 9 10 11 13 13 13 13 13
35 38 37 34 31 30 30 30 29 27 24 23 29 41 50 55 61 67 71 71 70 68 63 51 47 54 60 60 63 70 75 76 77 75 75 79 83 84 85 89 88 84 83 89 93 80 57 54 74 89 87 74 52 27 17 19 16 10 8 7 5 6 6 5 5 5 4 4 4 3 3 4 6 7 6 6 7 9 11 12 14 14 14 15 14
38 37 35 32 29 28 27 24 22 24 29 37 50 59 58 55 60 72 84 88 85 86 89 83 69 63 64 63 60 61 62 65 70 75 80 85 83 77 78 88 94 93 91 89 80 65 56 65 83 90 78 57 34 20 18 18 13 9 8 6 5 7 6 4 5 4 3 4 3 2 3 5 6 7 6 6 8 10 11 13 14 14 14 15 14
35 32 30 29 27 25 22 20 22 29 37 46 54 55 51 49 55 62 68 67 65 72 90 99 89 75 72 73 73 71 67 60 60 65 72 76 76 77 83 91 93 86 77 67 57 55 65 81 90 83 62 39 24 20 19 15 10 8 7 6 6 6 5 5 5 4 3 4 3 3 4 6 6 6 6 6 8 10 11 13 14 13 14 14 14
29 27 28 28 26 23 21 25 32 39 44 48 50 48 45 48 56 64 65 65 69 77 90 99 99 91 85 85 84 79 71 64 64 70 73 73 78 84 85 79 69 59 53 52 56 67 83 93 89 71 47 28 21 20 17 12 9 8 6 6 6 6 5 5 4 4 4 4 3 3 5 6 6 6 6 7 9 10 12 13 13 13 13 14 14
26 25 25 25 24 23 27 37 45 47 50 55 58 58 58 60 66 72 73 75 88 100 101 99 100 98 93 90 86 79 74 75 80 85 85 83 82 79 71 62 55 53 57 65 71 81 91 93 80 57 35 23 20 19 14 10 9 7 6 7 6 5 5 5 4 4 4 3 3 4 5 5 6 6 6 7 9 11 12 13 13 13 13 13 14
24 23 22 23 25 27 36 49 56 54 53 57 59 60 64 69 75 80 78 77 89 102 102 94 95 98 97 95 93 89 86 88 94 99 96 88 78 69 63 61 64 68 75 82 86 91 95 87 65 42 28 22 20 16 12 9 8 7 6 7 6 5 5 4 4 4 4 3 3 4 4 6 7 6 6 8 9 11 12 13 13 13 13 13 14
21 19 20 22 25 29 39 55 62 57 54 56 56 55 58 61 66 72 72 72 83 97 100 93 91 94 98 100 102 101 95 90 93 96 88 75 68 69 73 77 81 87 93 96 96 96 90 72 49 33 26 21 17 14 11 8 7 7 7 7 5 5 5 4 4 4 3 3 4 4 4 6 7 6 6 8 9 11 12 13 13 13 13 13 13
19 16 15 16 20 26 39 56 67 64 55 49 44 43 47 52 58 64 68 69 74 83 90 91 92 95 96 97 97 93 84 75 74 76 74 72 78 85 89 91 95 98 100 101 99 91 76 56 39 29 23 18 15 12 9 7 7 7 7 6 6 5 5 4 4 4 3 3 3 4 4 6 7 7 7 8 9 11 12 12 13 13 13 13 13
20 15 12 14 19 28 41 58 71 72 64 52 42 34 33 37 46 58 69 75 77 77 78 80 83 85 86 86 86 82 77 74 76 80 83 89 94 96 97 99 102 102 100 99 93 78 59 42 30 24 19 16 13 10 8 7 7 7 7 6 6 5 5 5 4 4 3 3 3 4 5 7 8 7 7 7 9 11 12 12 13 13 13 13 13
26 24 24 25 28 37 52 68 76 75 70 66 61 54 45 38 37 45 55 65 73 80 85 86 86 86 86 87 89 90 89 90 93 95 96 98 99 100 101 101 98 93 89 85 75 59 42 30 23 19 16 14 11 9 7 7 7 7 7 6 6 5 5 5 4 4 4 3 3 3 5 7 8 8 7 7 8 10 11 12 13 13 13 13 12
41 43 45 44 43 51 68 82 85 79 74 75 78 77 73 65 59 55 55 57 63 71 77 80 83 85 86 89 92 95 96 96 96 97 98 99 101 100 98 93 87 81 75 66 54 40 29 22 18 16 14 12 9 8 7 7 7 7 7 7 6 5 5 5 5 4 4 3 3 4 5 7 8 8 7 7 8 10 11 12 13 13 13 13 12
57 58 60 60 60 63 71 80 83 79 77 80 85 88 88 86 81 76 74 74 76 76 74 70 68 69 76 85 93 97 98 99 98 98 99 101 100 96 88 80 74 67 56 45 34 25 20 18 17 15 13 11 9 8 7 7 8 8 7 7 7 6 6 5 5 4 4 3 3 4 5 7 8 9 8 7 8 9 10 11 12 13 13 13 12
60 62 64 68 72 74 77 84 87 84 79 80 87 94 97 96 92 88 87 88 90 90 89 85 80 78 82 90 96 99 100 100 100 99 100 100 95 86 73 62 53 44 35 27 23 20 18 17 15 13 11 10 8 7 7 8 8 8 8 7 7 6 6 5 5 4 4 4 3 4 5 7 8 9 8 8 8 9 10 11 12 12 13 13 13
62 62 64 68 73 76 79 84 87 86 84 85 88 93 97 99 98 97 97 96 96 97 98 97 96 95 94 92 90 93 96 99 99 99 98 91 78 63 49 39 32 27 24 21 20 18 17 15 14 12 11 9 8 8 8 8 8 8 8 7 7 7 6 6 5 4 4 4 3 4 5 7 8 9 9 9 8 9 10 11 12 12 13 13 13
61 63 65 68 71 75 78 78 78 82 91 96 95 95 98 99 99 99 100 99 99 100 100 100 99 96 90 84 81 83 85 86 86 84 79 66 50 38 33 30 26 23 21 20 18 17 16 15 13 12 10 9 8 9 9 8 8 8 8 8 8 7 6 6 6 5 4 4 4 4 5 7 8 9 9 9 9 9 10 11 12 13 13 13 13
61 63 66 68 70 74 78 81 81 85 91 94 93 96 100 100 98 97 99 99 100 100 100 101 101 96 89 86 87 88 88 87 81 69 55 45 42 41 37 32 28 24 21 18 17 16 15 14 13 11 10 9 9 9 9 8 9 9 8 8 8 8 7 6 6 5 4 4 4 4 5 6 8 9 9 9 10 10 11 11 12 13 13 13 13
Wind_Speed
13 14 14 14 15 17 19 21 22 24 24 25 24 23 24 24 25 24 23 20 17 17 17 18 19 19 19 18 16 14 12 10 8 6 6 6 6 8 10 12 14 17 19 21 22 23 24 23 23 24 24 25 24 23 21 21 21 21 22 23 24 24 25 25 25 24 24 25 25 26 25 26 28 29 30 32 32 33 34 35 35 36 35 34 33
14 15 14 14 13 14 16 18 20 22 23 24 24 24 24 25 26 25 23 21 19 18 18 19 19 19 20 19 17 16 13 11 9 7 6 6 7 9 11 13 15 17 20 22 23 23 23 22 23 23 24 24 24 24 23 22 22 22 23 24 25 25 25 26 27 27 28 29 29 29 28 28 30 32 33 35 36 36 37 37 36 36 36 35 34
16 16 14 13 12 12 12 14 16 18 20 22 23 25 25 27 27 26 24 22 20 19 19 19 19 19 20 20 19 17 15 12 10 8 7 6 8 10 12 14 16 18 21 23 23 23 22 22 22 22 23 24 23 23 23 23 23 23 24 24 25 26 26 26 27 28 29 30 32 32 32 32 34 35 36 37 38 38 38 38 37 36 36 36 36
18 16 14 13 12 11 10 11 13 15 17 19 22 25 27 28 28 27 26 24 21 20 21 20 19 19 20 21 20 18 16 14 11 9 8 7 10 11 12 14 16 19 21 22 24 24 23 22 23 23 24 25 24 22 23 24 24 24 25 25 25 27 27 27 28 28 29 30 32 33 34 34 36 37 38 38 38 39 39 38 37 37 37 38 38
18 16 15 14 13 12 11 10 10 11 13 14 18 23 27 29 29 28 27 25 23 22 22 21 19 19 20 22 21 19 18 15 12 10 9 9 11 12 12 14 17 19 20 22 24 25 25 25 25 25 26 26 25 24 23 24 24 24 25 25 25 26 27 28 28 28 28 29 31 33 35 36 37 39 41 41 40 40 40 39 38 39 40 40 40
19 18 17 14 13 13 12 11 10 10 10 11 14 18 24 29 31 30 29 27 24 23 23 22 20 19 21 23 23 20 19 17 14 12 11 12 13 12 13 15 17 19 20 21 23 24 25 25 26 27 27 28 27 25 24 24 25 25 24 24 24 25 26 27 28 28 29 29 31 33 36 37 39 40 42 43 42 42 43 42 41 42 42 42 42
20 19 17 15 13 13 13 11 11 11 11 12 13 15 19 25 30 31 30 28 26 24 24 22 21 21 22 24 23 21 20 18 15 13 14 15 14 13 13 15 18 19 20 21 22 22 23 25 26 28 28 28 28 26 25 25 25 24 24 23 24 25 26 27 28 29 29 30 31 33 35 37 40 41 42 43 43 43 45 46 45 44 44 43 43
21 19 18 16 13 13 13 13 13 13 13 14 13 14 17 21 25 29 29 28 27 25 24 23 22 22 23 24 23 22 21 19 16 15 16 16 15 14 14 16 18 19 21 22 22 22 23 24 27 29 29 27 27 26 26 26 25 24 24 24 25 26 27 28 29 30 31 32 33 35 36 38 40 42 43 44 44 44 46 49 48 46 45 45 44
20 19 18 15 13 14 15 15 15 15 15 16 15 15 16 19 22 25 26 26 26 26 25 24 23 23 24 25 24 22 21 19 17 17 17 17 15 14 15 17 19 20 21 22 22 23 24 24 26 29 29 28 27 27 27 27 26 25 25 25 26 27 28 30 31 32 32 33 35 36 37 38 41 43 44 45 46 45 46 49 49 47 46 45 44
18 17 17 15 15 17 17 17 18 18 17 17 17 17 18 18 20 22 23 25 26 26 25 24 24 24 25 25 24 23 22 20 18 18 18 17 16 15 16 18 20 20 21 22 23 24 25 25 26 27 28 30 29 27 26 26 26 26 26 26 27 28 29 31 32 33 34 34 36 37 39 40 42 44 45 46 47 47 47 48 48 48 47 45 44
16 15 15 16 19 20 19 19 19 19 19 18 18 19 20 20 20 21 22 24 26 26 26 24 23 25 26 26 25 24 23 21 20 20 18 17 16 17 18 19 20 21 22 22 24 26 27 27 26 27 29 31 30 28 25 24 24 26 27 27 28 29 30 32 33 34 35 36 37 39 40 42 44 45 47 48 48 49 49 49 49 48 47 46 44
17 15 15 18 21 20 19 19 20 20 20 20 20 21 21 21 21 21 22 23 24 26 26 25 24 25 26 26 25 25 24 23 22 20 18 17 18 18 19 20 21 20 21 22 24 27 29 29 30 31 32 31 30 28 26 24 24 26 27 28 29 30 31 32 34 35 36 38 39 41 43 44 45 47 48 49 49 49 50 50 50 49 48 47 45
21 18 17 19 20 19 18 18 19 20 21 22 23 24 23 21 21 21 21 22 23 24 25 25 25 26 27 26 26 26 26 24 23 21 19 19 19 20 20 21 20 19 20 22 24 26 28 30 30 30 29 28 29 30 28 26 27 28 29 29 30 31 32 33 34 36 37 39 40 42 44 45 46 48 49 50 50 50 50 50 50 49 48 47 45
24 21 20 20 20 20 19 18 19 22 24 25 26 26 25 23 22 22 21 21 21 22 24 24 24 26 28 27 27 28 27 25 23 22 21 21 21 22 21 20 19 18 19 21 23 24 27 29 30 30 30 29 30 31 30 29 29 29 30 31 31 32 33 34 35 37 38 40 42 43 45 46 48 49 50 50 51 51 51 50 50 49 47 45 44
24 23 22 22 22 22 21 20 21 23 25 27 28 28 27 25 24 23 22 21 21 21 23 24 24 26 28 29 29 30 28 26 24 23 23 23 24 24 22 20 18 18 19 21 23 23 25 27 30 33 33 32 31 31 31 30 30 31 32 32 32 33 34 35 36 38 39 41 43 45 46 47 48 50 50 51 51 51 50 49 48 46 46 45 45
25 24 24 24 24 24 23 23 23 24 25 26 27 28 29 28 26 25 24 23 22 21 23 24 24 26 29 31 31 31 29 27 26 26 25 25 25 25 22 20 18 18 20 21 23 23 24 26 29 32 33 32 32 31 30 30 31 32 33 33 33 34 35 36 37 39 41 42 44 46 47 48 49 50 50 50 50 50 49 47 46 46 46 46 45
26 26 26 26 25 25 26 27 27 27 27 27 28 28 29 30 29 28 26 24 23 23 23 25 25 27 30 32 32 31 30 29 28 28 27 27 27 25 22 20 19 19 21 23 23 24 25 26 28 30 32 33 33 32 30 30 32 33 34 34 34 35 36 37 39 40 42 43 45 46 47 49 49 50 50 50 49 48 47 46 46 47 46 44 43
27 28 28 29 28 26 27 30 31 31 31 31 31 31 32 31 31 31 28 26 26 25 25 26 27 28 30 32 33 32 32 31 31 30 30 29 28 26 23 21 20 20 23 25 25 25 26 27 29 30 32 33 34 33 32 32 34 35 36 36 36 37 37 38 40 42 43 44 46 47 48 49 49 49 49 47 46 46 46 46 45 44 43 41 40
29 29 29 31 30 28 30 34 36 35 34 35 35 35 35 34 35 35 32 29 29 29 28 27 28 29 31 33 34 35 35 34 33 33 32 31 29 27 24 22 22 23 26 28 27 27 28 28 29 31 32 33 34 34 34 35 36 36 36 37 37 38 38 39 41 42 44 45 46 47 48 48 48 48 46 45 45 45 45 44 42 41 40 39 38
30 30 31 32 33 32 34 37 38 37 36 37 37 36 35 35 36 37 36 32 31 32 31 30 30 30 32 34 37 37 37 37 36 35 35 33 31 29 26 23 24 27 29 29 27 28 29 29 30 32 33 33 34 35 36 36 37 37 37 38 38 38 39 40 42 43 44 46 46 47 48 47 46 45 44 45 45 44 42 41 40 38 37 37 38
31 32 34 36 36 36 37 38 38 38 38 39 40 37 35 34 35 37 38 36 35 35 34 34 33 33 33 35 38 40 40 39 38 38 37 35 34 31 28 27 30 31 30 29 28 29 29 29 30 32 33 34 35 36 37 37 37 38 38 38 38 39 40 41 43 44 45 45 46 47 46 45 44 44 44 44 43 41 40 39 37 36 36 37 39
35 36 38 39 38 38 38 39 39 38 38 40 40 39 38 38 39 40 40 39 39 39 37 36 37 37 36 37 38 40 41 41 41 41 39 38 36 34 31 32 35 33 31 30 29 29 29 29 31 32 33 35 36 36 37 38 38 38 38 38 38 40 41 42 43 44 45 45 45 45 44 43 43 43 42 42 40 39 38 37 35 36 38 39 40
37 38 39 39 39 39 39 40 40 40 40 41 42 44 45 44 42 43 44 43 43 43 41 40 41 41 40 39 39 40 42 43 44 44 42 40 39 37 36 39 41 38 33 31 31 30 29 29 31 33 34 36 37 37 37 38 37 37 38 38 39 40 41 42 43 44 44 44 43 43 42 42 42 41 41 40 38 37 35 35 36 37 38 39 39
39 40 40 40 41 41 41 41 42 42 42 43 44 47 50 50 47 44 44 44 45 46 44 43 44 44 43 42 41 41 42 44 46 46 44 43 43 42 41 43 45 42 38 35 34 32 30 30 31 33 35 36 37 37 37 38 37 37 38 38 40 41 41 42 43 43 43 42 42 42 41 41 40 40 39 38 36 35 34 35 37 38 38 38 39
43 44 44 44 44 44 43 44 45 46 46 47 47 48 50 52 52 51 50 48 47 46 46 46 47 47 46 45 44 44 46 47 48 48 47 46 46 46 46 47 48 47 45 43 38 34 31 31 32 34 36 37 37 37 37 38 38 37 38 39 40 41 41 42 42 42 41 41 40 41 40 40 40 39 37 36 34 34 35 37 38 38 38 39 39
47 47 47 46 47 47 47 47 48 49 49 50 51 50 51 52 52 52 54 55 53 49 47 46 48 49 49 49 48 48 50 52 51 50 50 49 49 49 49 50 51 50 47 44 39 35 32 31 33 36 36 36 37 37 38 38 38 37 38 40 40 41 41 41 41 40 40 39 40 40 41 40 39 37 35 34 34 34 36 37 38 38 39 39 39
48 46 45 45 45 47 48 48 49 50 51 52 53 53 53 54 54 53 54 56 56 55 53 50 49 50 51 51 52 53 54 55 55 54 52 51 51 52 53 54 53 50 45 39 36 35 35 34 35 37 37 37 37 38 38 38 37 38 39 40 40 40 40 40 39 38 38 38 39 41 41 39 37 35 33 33 33 34 36 38 38 38 38 38 38
45 44 43 44 45 47 48 49 50 51 53 54 56 57 57 58 58 58 56 56 56 57 57 54 51 50 51 54 55 57 60 60 59 57 55 54 54 55 57 58 57 56 54 50 44 38 37 37 37 38 38 38 38 38 38 37 37 38 39 39 39 39 39 38 38 36 36 37 39 40 39 37 35 33 32 32 33 35 37 37 37 37 37 37 37
46 46 46 47 48 49 50 51 52 53 55 56 57 59 60 60 61 61 61 59 58 58 60 60 57 55 57 59 60 62 64 63 61 59 59 60 60 60 59 58 58 59 60 59 51 43 40 40 40 41 40 39 38 38 38 37 37 39 39 39 38 38 37 36 35 35 36 38 39 39 37 35 33 31 31 32 34 36 37 37 36 36 36 35 36
47 48 49 50 51 52 52 53 54 55 56 57 58 58 59 60 61 61 60 60 59 59 60 62 62 61 63 65 64 64 63 62 62 63 65 65 66 65 59 55 57 60 60 56 51 47 44 43 42 42 42 40 38 38 38 37 38 38 38 38 38 37 36 34 33 34 36 37 38 36 35 33 31 30 30 32 34 36 36 35 35 35 34 34 34
48 48 49 51 52 53 53 54 55 56 57 58 58 59 60 61 62 63 63 64 64 63 62 61 60 61 66 69 67 64 62 61 61 65 67 67 69 68 58 50 53 60 59 53 49 47 46 44 44 44 43 40 39 38 38 37 38 38 38 38 37 35 34 32 31 33 35 36 36 34 33 31 30 29 30 32 34 35 35 34 34 33 33 33 34
49 49 49 49 50 51 52 53 55 56 57 57 59 61 62 63 65 66 67 69 70 69 69 66 61 61 67 72 70 66 65 64 64 65 65 64 66 67 59 48 48 54 55 49 47 47 47 47 47 46 44 40 39 39 38 37 38 38 38 37 35 33 32 30 30 32 34 34 34 33 31 29 28 28 30 32 34 34 33 33 32 32 32 32 33
50 49 49 49 50 51 52 53 54 55 56 58 61 63 65 67 68 69 71 73 74 74 74 72 68 67 70 72 70 68 68 68 67 65 63 61 62 64 61 52 46 46 47 46 45 46 47 49 49 47 43 40 40 39 37 37 38 38 37 36 34 31 29 28 29 31 32 33 32 31 29 28 27 28 30 32 32 32 31 31 30 30 31 32 32
50 49 49 50 51 52 52 53 54 55 57 59 61 64 68 71 73 74 75 76 76 76 75 74 73 73 73 72 70 69 70 72 71 68 67 65 63 62 62 58 49 44 45 47 46 46 48 51 51 47 43 41 40 38 37 37 37 37 36 34 31 30 28 27 28 29 31 31 30 29 27 26 27 28 30 31 31 30 29 28 28 29 30 31 32
49 49 50 50 50 50 51 52 53 55 58 59 62 66 70 73 77 81 82 80 79 79 78 77 76 76 75 72 69 65 63 65 69 70 69 70 70 68 65 62 56 50 49 51 50 49 51 53 53 49 44 41 38 36 36 37 37 36 35 32 30 28 26 26 27 28 30 30 29 27 26 26 26 28 30 30 30 29 27 26 27 28 29 31 32
48 48 48 47 47 48 49 50 52 54 57 59 61 62 63 66 69 73 78 80 79 77 77 78 79 81 78 74 70 65 60 61 64 66 65 67 70 72 71 68 64 59 55 53 52 52 54 55 53 49 43 38 36 36 36 36 36 35 33 30 28 26 25 25 26 28 29 29 27 26 26 25 26 28 29 29 28 27 25 25 26 27 29 30 32
45 45 45 45 45 46 47 48 50 53 55 58 59 59 58 59 60 61 68 74 74 73 75 79 81 80 78 76 73 71 68 67 67 66 65 66 69 72 71 66 61 57 54 52 52 54 55 54 49 44 40 36 35 36 36 35 35 33 31 28 26 25 24 25 26 27 28 28 27 26 25 24 25 27 29 29 27 25 24 24 26 27 29 30 32
42 42 42 42 43 45 46 47 49 51 52 53 56 57 57 57 56 54 53 55 56 57 60 70 77 76 72 71 72 72 72 71 70 67 66 66 65 62 56 52 49 49 48 49 51 54 55 51 45 40 37 35 35 36 36 34 33 32 29 27 25 24 24 25 26 27 28 28 26 24 23 23 25 27 28 28 26 24 23 24 26 27 28 29 31
40 40 41 41 42 43 44 45 46 47 47 48 50 51 51 51 49 42 32 25 34 44 42 42 53 60 61 63 69 72 73 72 69 64 64 67 61 50 42 41 42 43 44 47 51 54 52 48 42 38 35 35 35 36 35 33 32 30 28 26 24 23 23 24 25 27 27 26 24 22 23 24 25 27 27 27 25 23 23 24 26 27 28 29 30
40 40 40 41 41 41 41 42 43 42 40 39 39 37 38 39 38 33 22 7 24 37 33 28 36 48 56 64 70 70 68 66 61 56 57 59 52 40 34 37 39 40 43 48 51 52 49 44 39 36 35 35 35 35 34 32 31 29 27 25 23 23 23 24 25 26 25 24 22 22 23 24 25 26 26 26 24 23 23 25 26 27 28 29 30
39 39 40 40 40 39 38 38 37 35 33 32 29 26 25 27 26 24 22 11 16 32 36 37 42 49 55 61 62 59 57 59 59 57 53 47 38 31 31 35 37 39 44 49 50 48 45 41 37 35 35 35 35 34 33 32 30 28 26 24 23 23 23 24 24 25 24 23 22 22 23 24 25 26 26 25 23 23 23 25 26 27 28 29 30
38 39 40 40 39 38 37 36 34 30 28 28 27 23 20 20 19 15 14 16 19 24 31 39 46 51 54 53 50 46 44 43 45 45 41 34 28 28 32 35 38 41 44 46 46 44 41 38 36 35 35 35 34 33 32 31 29 27 25 23 23 23 23 23 24 24 24 24 23 22 23 25 26 26 26 25 24 23 24 25 26 27 28 29 30
38 38 39 39 38 38 37 35 33 30 27 27 28 26 21 16 13 9 6 7 11 14 17 21 28 34 38 38 36 33 29 25 23 25 25 25 27 31 34 36 39 41 43 43 43 41 38 36 36 36 35 34 33 32 31 29 27 26 24 23 23 23 23 23 24 24 25 24 23 23 24 26 26 26 26 25 24 24 24 25 26 27 28 29 30
37 37 38 38 38 36 35 34 33 30 27 25 25 26 24 19 15 12 9 7 6 6 7 8 10 12 15 17 18 19 19 18 19 21 23 26 30 33 35 37 39 41 42 41 39 37 36 36 36 35 34 33 32 31 30 28 27 25 24 24 23 23 23 24 24 24 24 24 23 24 25 26 26 26 26 25 25 25 24 25 26 27 28 29 30
36 36 37 37 36 34 33 32 30 27 26 25 24 23 23 21 19 16 15 13 11 10 10 11 12 13 14 15 16 18 20 21 23 25 27 29 32 34 37 38 39 38 37 36 35 35 35 36 34 33 32 32 31 30 29 28 27 25 24 24 24 24 24 25 25 24 24 24 24 25 26 27 27 27 26 26 26 25 25 25 26 27 28 29 30
35 36 36 35 34 31 27 27 26 26 25 25 26 25 23 22 21 20 19 18 17 16 16 16 16 17 18 19 21 22 24 25 26 28 30 33 35 37 36 35 34 33 33 33 34 35 35 34 32 31 31 31 30 29 28 28 27 26 25 25 24 24 25 25 25 24 23 24 25 26 27 28 28 28 27 27 26 26 26 26 26 27 28 29 30
33 34 35 33 32 31 29 28 28 28 27 25 26 27 27 26 24 23 21 19 20 21 22 22 22 22 23 23 25 27 29 30 32 33 34 36 36 34 31 30 30 31 32 33 34 34 33 32 31 31 31 30 29 29 28 28 27 26 26 26 25 26 26 26 25 24 24 25 26 27 27 28 29 28 28 27 27 26 26 26 27 28 29 30 30
29 31 32 32 32 33 33 32 30 29 28 27 28 28 27 26 25 25 23 22 24 26 26 26 26 26 26 27 29 30 32 34 35 35 35 33 30 28 27 28 30 31 32 33 33 33 32 31 31 31 31 30 29 29 29 28 27 26 26 27 27 27 27 26 25 24 25 26 27 27 28 29 29 29 28 28 27 27 27 27 27 28 29 30 31
28 28 29 31 32 32 33 33 31 29 28 27 27 25 24 23 24 25 24 24 25 26 27 27 27 28 28 28 28 29 30 31 32 31 29 27 25 26 27 29 30 31 32 32 32 31 31 31 31 31 30 30 29 29 29 28 27 27 27 28 28 28 27 26 25 26 27 27 28 28 29 29 30 30 29 28 28 27 27 27 28 29 30 31 32
29 28 28 29 29 30 31 31 31 30 29 28 27 26 25 24 25 25 23 22 23 24 25 25 25 25 26 26 26 26 28 30 30 28 25 24 25 26 26 28 29 30 31 31 31 31 31 31 31 30 30 30 30 30 30 29 28 27 28 29 29 29 28 27 27 27 28 28 28 29 29 30 30 30 30 29 28 27 27 27 28 30 31 32 32
29 28 29 29 29 29 29 29 28 28 30 32 33 33 32 31 29 26 24 22 22 23 23 24 24 24 24 23 22 24 27 29 29 28 27 25 24 24 25 26 28 29 30 30 31 31 31 30 30 30 30 31 31 31 31 30 29 28 29 29 30 30 29 28 28 28 28 29 29 29 30 30 31 31 30 30 28 27 27 27 29 30 32 33 33
Wind_Direction
236 243 246 248 248 245 241 238 237 238 239 241 244 246 247 249 250 250 250 250 248 247 251 258 264 264 259 252 245 240 238 237 242 257 275 287 306 319 318 318 323 327 326 325 325 326 326 327 330 335 337 335 333 331 329 328 329 330 328 326 325 324 324 322 320 318 316 315 315 317 320 320 318 316 316 315 315 316 316 315 313 310 307 305 303
239 247 254 258 257 251 245 241 239 240 240 241 242 243 246 248 249 250 251 251 249 245 245 251 259 263 261 254 247 243 239 236 238 247 258 269 290 303 309 317 323 324 325 328 329 329 330 330 332 336 338 337 335 333 329 327 327 327 326 325 324 324 324 323 323 323 322 321 320 321 322 320 317 315 315 314 315 315 313 312 310 308 306 305 303
241 249 259 265 265 260 255 249 245 244 243 243 242 242 243 245 247 248 249 249 247 244 244 247 253 259 260 255 249 245 243 239 238 241 245 261 280 292 306 315 319 321 326 330 331 332 334 334 334 336 337 337 335 333 330 327 326 325 323 323 323 323 324 324 324 325 325 324 323 323 321 318 316 315 313 313 313 312 311 310 309 308 306 305 304
243 252 261 266 268 272 271 262 254 250 247 244 241 240 241 242 245 246 247 247 245 243 243 244 248 254 257 255 249 246 245 242 241 239 239 256 274 286 300 308 313 320 326 329 330 332 334 333 333 333 335 336 334 331 329 327 324 322 320 321 323 324 323 323 323 323 323 322 321 320 318 317 316 314 313 313 313 312 311 310 309 307 305 305 304
247 254 259 263 270 278 280 275 265 256 253 250 244 240 240 241 242 243 244 245 243 242 242 243 246 249 253 253 249 245 245 245 243 238 240 255 267 279 292 301 311 321 326 328 329 331 331 331 331 332 334 336 334 330 329 326 321 318 317 319 322 322 321 321 320 320 320 319 318 317 316 317 317 316 316 316 316 314 311 309 308 306 305 305 304
248 254 257 261 268 277 284 286 277 264 262 264 258 249 243 241 242 243 243 242 241 240 240 241 241 243 247 249 248 245 245 246 243 238 243 254 263 274 287 300 314 322 325 327 328 330 330 330 332 334 334 335 334 330 327 326 321 317 315 317 320 319 318 318 317 317 317 317 317 317 316 317 316 315 316 316 315 314 310 307 307 306 305 305 305
249 251 255 259 266 276 283 286 283 273 269 272 275 270 257 248 244 244 243 242 239 238 238 239 239 239 243 247 246 244 245 246 243 240 246 254 262 275 290 305 317 322 323 324 326 329 329 330 332 332 331 332 331 328 324 323 322 320 319 319 320 319 317 316 316 316 317 318 318 317 316 316 314 313 314 313 312 310 308 306 308 308 307 306 306
249 250 253 257 266 276 278 280 284 281 275 274 280 286 279 264 253 248 244 242 239 237 236 237 238 237 240 244 244 243 245 246 242 242 249 257 265 279 294 307 316 319 319 320 323 327 328 328 329 328 329 330 329 326 323 323 323 323 322 322 321 319 316 316 317 319 320 320 319 318 316 313 312 312 312 311 309 308 307 307 309 310 308 307 307
249 250 253 258 267 273 272 273 281 287 286 281 280 283 285 279 268 259 251 244 241 240 238 238 238 238 239 240 240 241 244 244 242 244 252 260 267 280 295 305 311 313 313 315 320 323 325 326 326 326 328 329 330 328 323 323 326 325 323 322 321 319 317 317 320 321 322 321 318 316 314 311 310 311 310 309 309 309 308 307 308 308 307 307 306
252 255 259 266 269 270 268 269 274 284 292 291 286 282 280 280 277 271 264 255 251 251 250 246 241 239 239 238 238 239 242 242 242 246 254 262 270 280 293 301 305 305 307 311 317 320 321 322 322 326 329 328 330 332 324 319 322 324 323 322 320 318 317 319 321 321 321 319 316 314 313 310 309 310 310 309 309 309 308 308 307 307 306 306 305
252 257 263 268 268 268 268 269 272 279 287 292 293 289 283 280 279 277 274 270 267 267 267 261 250 242 240 238 236 237 239 240 241 245 254 263 271 280 289 295 297 299 303 309 315 319 319 317 319 326 330 328 328 330 325 318 320 321 320 319 319 318 319 320 320 320 318 317 315 313 312 310 310 310 310 310 310 309 308 308 307 307 307 306 305
251 254 258 262 264 265 266 268 270 275 282 287 291 291 289 288 286 285 282 279 276 276 277 274 260 247 242 240 237 236 237 238 240 245 253 262 270 277 284 288 290 296 303 309 315 319 317 315 318 320 320 321 324 327 325 321 320 319 318 318 318 319 320 320 319 318 317 316 314 313 312 312 311 311 311 311 310 309 309 308 308 307 307 307 307
250 251 251 254 258 262 266 269 270 274 279 283 285 286 289 293 295 294 290 285 283 281 281 278 266 253 247 243 239 237 236 236 238 244 251 259 266 272 276 280 286 294 303 310 316 317 315 317 321 319 317 319 323 326 324 321 319 319 318 318 318 318 318 318 316 315 315 315 314 312 312 313 312 311 311 311 310 310 310 309 309 308 309 309 309
248 249 248 250 255 260 265 270 271 271 273 277 280 281 284 289 292 295 296 295 294 288 282 278 270 259 252 245 240 238 236 235 237 243 249 256 262 267 270 275 284 295 305 311 316 316 315 317 319 320 321 321 323 325 325 322 320 319 318 317 317 316 315 315 314 314 314 313 313 312 312 313 312 311 311 311 311 310 311 310 310 310 311 311 310
246 247 247 248 251 256 262 267 269 268 268 270 274 276 278 282 286 290 294 297 299 292 283 277 270 261 254 247 241 238 236 234 237 242 248 254 260 264 268 273 283 295 304 310 313 315 316 316 316 318 320 320 321 325 326 323 321 320 317 316 314 313 313 314 314 314 313 312 312 312 313 313 312 311 311 311 311 311 311 311 311 312 312 312 311
245 247 249 250 250 252 256 260 263 266 267 268 271 274 275 276 280 283 286 290 293 292 286 281 274 264 257 251 243 238 236 235 238 242 247 252 258 263 266 272 282 293 299 304 308 311 313 315 315 316 317 318 321 325 324 321 319 316 313 312 311 311 312 313 313 313 312 312 313 313 313 312 312 311 311 311 312 312 312 312 312 312 312 312 311
244 247 251 253 250 250 253 255 258 263 266 269 273 274 273 271 272 275 279 283 286 287 286 283 277 267 259 254 247 241 236 236 239 242 246 250 256 261 264 269 279 287 292 296 300 304 309 312 312 313 314 316 319 323 323 319 315 312 310 310 310 310 311 312 312 311 312 313 313 313 313 312 311 311 311 312 312 313 313 313 313 313 313 312 311
247 247 250 253 251 249 249 251 253 256 260 262 264 265 266 266 266 268 271 274 278 281 282 280 276 269 261 255 249 242 237 237 239 242 245 249 254 257 261 267 275 281 286 289 292 298 302 306 308 310 312 314 318 322 322 319 314 311 311 311 310 310 311 311 311 311 312 313 313 313 312 311 311 311 312 313 313 313 313 314 314 314 313 313 313
248 247 250 255 255 251 248 251 254 258 260 259 258 256 256 256 259 260 262 266 271 274 276 277 277 273 264 256 250 244 239 237 239 243 246 248 252 255 258 263 271 277 279 281 286 292 296 301 305 308 309 313 317 321 322 319 315 311 309 308 308 308 310 311 311 312 313 313 312 311 311 311 312 312 313 313 313 314 314 315 315 315 315 315 315
247 246 248 252 254 252 252 255 260 264 267 268 267 263 256 251 253 255 255 258 263 266 269 272 275 274 267 258 252 248 244 240 241 245 247 248 250 254 256 262 268 271 272 275 280 286 291 296 301 304 307 312 315 319 320 317 313 309 307 306 307 308 310 310 311 312 312 312 311 310 311 312 312 313 313 313 314 316 317 317 316 316 316 315 316
248 247 249 250 252 255 257 261 264 269 274 276 276 273 263 254 253 255 254 253 254 259 264 267 270 271 268 262 256 252 248 244 243 246 248 249 251 253 255 261 265 265 266 271 276 281 286 292 297 300 305 310 313 316 317 315 312 309 306 306 307 308 309 309 310 311 311 310 310 311 311 312 313 313 313 315 317 318 318 318 317 316 316 316 316
252 253 255 256 258 262 266 268 269 272 277 279 279 277 271 260 253 253 254 252 251 252 256 260 264 265 266 265 262 257 252 249 247 249 250 249 251 253 255 260 261 260 263 269 273 278 283 288 293 298 303 306 310 314 315 313 311 308 307 307 307 307 307 308 309 310 309 309 310 311 312 312 313 314 315 318 320 319 318 317 316 315 316 316 317
255 256 258 261 264 267 269 272 272 272 274 276 278 281 281 275 263 254 251 252 252 252 251 253 256 260 263 265 264 260 257 253 250 250 250 251 252 253 255 259 260 258 262 269 273 277 282 285 289 295 299 303 307 312 313 312 309 307 306 305 305 305 306 308 308 307 307 309 311 312 312 314 315 317 319 320 320 318 316 315 315 315 317 317 318
259 260 262 264 266 269 271 272 273 273 274 275 276 279 283 285 281 273 264 258 254 254 254 253 253 256 259 262 263 262 260 257 252 250 249 250 252 252 254 259 259 258 262 271 274 276 279 282 287 291 295 300 305 310 311 310 307 304 303 303 303 304 306 306 306 306 307 310 312 312 314 317 319 320 320 320 319 317 315 314 315 317 318 319 320
264 265 267 267 269 270 271 271 271 273 274 274 275 276 277 280 283 285 282 275 266 261 260 258 257 257 257 258 261 261 259 255 252 250 248 248 250 252 255 259 260 261 266 271 273 273 276 280 284 288 292 298 303 307 309 307 304 301 300 301 301 303 305 304 304 306 309 311 312 315 319 321 321 321 320 319 317 316 315 315 317 320 320 321 321
265 266 267 268 268 267 267 268 269 270 271 273 274 274 272 272 274 276 279 281 279 273 268 264 262 259 257 257 258 258 257 254 251 248 247 247 249 252 255 258 261 265 270 271 270 271 275 279 282 286 291 297 302 306 306 303 300 298 298 299 301 302 303 302 303 306 309 312 315 320 322 322 322 321 319 317 316 315 316 318 321 322 322 322 322
265 266 266 266 266 266 267 268 269 270 271 273 274 273 271 270 270 270 272 276 278 277 274 272 269 264 260 258 256 255 254 254 251 247 245 245 249 252 255 258 260 263 268 271 272 274 277 279 282 284 290 296 300 303 303 300 296 296 296 298 300 301 300 301 304 307 311 315 320 322 323 322 321 320 317 316 315 316 319 321 322 322 323 323 325
267 268 268 267 267 268 268 269 269 271 271 271 272 272 271 271 271 271 271 271 271 271 271 271 270 266 261 258 256 254 252 250 249 247 245 245 247 250 253 257 260 262 266 271 275 277 277 278 281 283 287 294 298 299 299 297 293 294 295 297 300 299 299 301 305 308 314 320 322 322 322 322 321 318 316 315 316 319 322 322 322 322 323 325 327
267 266 266 267 267 268 268 269 269 270 270 270 270 271 271 271 271 271 271 269 267 265 263 262 261 259 257 255 253 252 251 249 247 246 245 243 244 246 250 255 258 260 265 269 272 275 276 278 280 281 283 289 295 296 295 294 291 292 295 297 298 297 298 301 306 312 318 322 322 322 322 321 319 316 315 316 319 322 322 322 322 323 325 326 328
262 261 261 262 263 264 265 266 267 268 269 270 271 271 272 272 272 271 270 268 266 264 262 261 261 260 259 257 254 253 254 253 249 247 245 244 243 244 248 254 257 258 262 267 270 273 275 277 280 279 279 285 292 293 292 291 290 292 295 296 295 296 298 301 308 316 321 322 321 321 322 319 317 315 316 318 321 322 322 321 323 325 327 328 328
262 261 260 260 260 261 262 264 265 267 269 271 272 271 270 270 269 268 267 266 264 263 261 260 261 262 261 259 257 257 257 257 254 250 248 246 245 244 247 256 259 258 260 268 272 272 274 277 279 278 278 283 290 290 289 288 289 291 294 293 293 295 298 304 312 318 321 321 321 321 320 317 316 315 317 321 322 321 321 322 325 327 328 329 330
268 267 266 266 265 265 266 267 269 270 272 273 272 270 268 267 266 265 264 262 261 260 259 257 257 258 258 258 257 257 258 258 257 253 248 245 244 244 246 255 261 259 261 268 273 272 273 277 279 276 275 282 288 288 286 285 287 290 292 291 292 295 299 306 315 319 320 320 320 320 319 316 315 317 320 322 321 320 321 324 327 329 330 331 332
270 270 270 270 269 269 269 270 271 272 272 272 271 270 270 270 268 266 264 262 260 258 256 255 253 254 256 257 256 255 255 256 256 256 252 247 244 244 246 252 258 260 261 266 271 272 273 278 279 276 275 282 287 285 283 284 286 289 289 289 292 296 301 309 315 318 318 319 319 319 317 315 315 318 320 321 319 319 322 326 329 331 334 335 335
269 269 270 271 271 271 272 272 272 272 272 271 272 273 273 272 270 268 265 262 260 259 257 255 253 253 254 255 255 254 253 253 255 257 256 253 252 253 254 253 255 260 262 264 269 274 275 277 278 276 277 283 285 282 280 282 285 286 287 288 292 298 303 309 314 316 317 318 318 317 315 314 315 318 319 319 318 319 323 327 331 335 338 339 339
266 267 269 270 271 272 273 273 274 273 273 274 275 275 275 274 272 269 267 264 261 259 257 255 255 254 252 251 251 252 253 253 253 254 255 257 259 260 259 255 254 259 263 265 269 274 275 274 274 275 278 282 281 277 277 281 283 284 286 289 293 298 303 309 312 314 315 317 316 315 314 314 315 317 317 317 317 319 324 328 333 337 340 341 342
265 266 268 270 271 272 272 273 273 274 275 276 275 274 277 280 277 272 268 265 260 255 251 249 249 249 247 245 246 248 251 253 253 254 256 258 259 261 262 260 256 257 261 265 269 272 272 272 273 275 277 277 275 273 276 279 281 282 285 289 293 297 302 307 310 312 314 315 315 314 314 313 314 315 315 314 315 319 324 328 332 336 339 341 343
265 266 268 269 269 270 271 272 274 276 277 276 273 273 281 289 286 278 271 266 260 252 245 240 239 239 239 240 243 246 248 251 253 254 255 257 259 261 261 258 254 254 259 265 267 268 269 270 272 274 273 271 270 272 276 278 280 281 285 289 293 296 300 305 309 311 313 313 314 314 311 309 311 313 312 312 314 318 323 327 330 333 337 340 343
264 265 266 266 267 269 271 275 277 279 280 280 279 280 286 291 290 287 285 279 270 260 247 235 231 232 232 235 239 241 242 246 250 250 252 256 259 257 252 248 249 254 259 261 261 263 267 270 271 270 268 267 268 272 275 277 278 281 284 288 291 294 299 304 307 309 311 312 312 310 305 304 308 310 309 309 312 317 322 325 327 331 335 339 341
263 263 264 265 266 270 275 279 281 283 285 285 285 285 286 288 289 295 304 289 261 257 253 235 225 225 226 230 235 238 240 244 248 250 253 255 253 246 240 242 248 252 253 254 258 262 265 268 268 266 264 265 268 272 274 276 277 279 283 287 290 293 298 302 305 308 310 309 307 303 300 301 306 308 306 306 309 314 319 321 324 329 333 337 339
262 261 263 265 267 272 278 282 284 286 286 286 289 291 292 294 294 299 310 275 207 216 226 222 214 215 219 225 232 238 240 243 246 250 251 249 243 236 238 242 244 246 249 254 259 262 264 265 264 261 261 264 268 271 273 274 274 277 282 285 289 292 296 300 303 306 306 304 300 297 297 300 304 304 303 303 306 310 314 318 322 327 332 335 337
262 261 263 266 268 272 277 280 282 285 283 283 291 300 304 308 310 308 307 291 191 184 191 198 203 208 214 222 231 239 243 245 247 248 246 241 236 235 239 241 243 249 254 257 260 262 263 262 260 258 260 264 267 269 271 271 272 276 281 284 288 291 294 298 301 303 302 298 295 294 295 297 300 301 300 299 301 305 310 315 320 326 331 334 336
263 262 263 265 266 269 274 274 275 278 279 278 284 294 301 306 314 317 302 276 244 220 212 212 214 218 223 229 236 242 244 244 242 239 237 235 237 240 244 247 251 255 257 259 262 262 260 258 256 257 261 265 267 268 268 269 271 276 280 283 286 290 292 295 298 299 298 295 293 291 292 294 296 297 297 296 297 301 306 312 319 325 329 332 334
264 263 263 264 265 267 270 269 267 270 274 275 276 283 289 293 296 304 303 272 255 247 237 228 227 230 233 236 238 238 235 233 231 230 233 240 246 249 251 255 257 257 259 262 263 260 256 253 254 257 261 264 265 265 266 268 271 276 279 282 285 287 289 292 294 295 295 293 289 288 289 291 293 294 294 293 293 296 302 310 316 323 327 330 332
264 264 263 263 264 265 266 264 262 266 273 275 275 277 282 284 284 283 283 280 274 272 271 268 262 254 246 242 240 239 241 246 249 249 251 253 253 254 256 258 260 261 262 262 259 255 251 252 255 259 262 263 263 263 265 267 271 275 278 280 282 284 287 289 291 292 292 289 285 285 286 288 290 291 292 291 291 294 299 307 314 320 324 327 329
262 263 263 263 264 265 263 259 259 263 270 275 278 279 280 282 284 284 283 280 274 271 273 275 277 276 273 271 266 262 260 260 259 258 256 255 255 257 259 260 261 261 259 256 252 250 250 253 257 260 261 262 262 263 265 268 271 275 277 278 280 282 285 287 288 290 289 286 283 283 284 285 287 289 290 290 290 292 297 304 311 317 321 324 326
262 262 262 262 263 262 257 254 258 263 269 275 279 281 282 284 284 282 280 279 275 270 267 266 266 268 268 267 265 263 260 257 255 253 253 255 258 260 259 257 254 252 251 249 249 250 253 257 260 261 261 261 261 262 265 268 271 274 275 276 278 280 283 284 286 287 286 284 282 281 280 282 284 287 288 290 290 290 294 301 308 314 318 321 324
263 263 263 263 261 256 251 252 258 263 266 274 281 283 283 286 287 284 283 283 281 277 274 270 267 264 261 260 260 259 256 253 251 250 251 253 255 254 251 247 246 246 247 249 251 254 258 261 261 261 260 260 260 261 265 268 271 273 274 275 277 279 280 282 285 285 283 281 279 277 277 279 282 285 287 289 289 290 293 299 305 310 313 317 320
262 263 262 262 259 255 252 255 261 265 268 274 280 283 284 284 283 282 282 283 282 281 279 277 273 269 264 261 258 256 254 252 250 248 247 247 246 244 242 243 245 248 250 253 256 258 260 260 259 258 258 259 260 263 266 269 271 273 273 274 276 278 279 281 283 283 281 278 276 274 274 277 281 284 286 288 288 289 292 297 303 307 310 313 316
257 258 258 258 257 254 251 250 253 259 265 270 272 273 275 273 271 273 275 274 273 273 274 273 271 270 267 262 257 253 250 247 244 241 240 239 238 239 242 246 249 252 254 256 258 259 258 257 258 258 259 261 263 265 267 269 271 272 273 275 276 277 279 280 281 280 279 276 272 271 272 275 278 282 285 286 287 289 293 297 302 304 306 309 312
253 253 254 255 256 256 255 251 247 246 251 256 260 263 265 262 262 266 268 266 264 264 264 264 265 266 264 260 256 252 248 245 241 238 236 234 235 239 245 250 253 255 257 257 258 257 257 258 259 260 262 264 265 266 268 269 270 271 272 274 275 276 278 279 279 277 276 273 270 268 269 272 276 279 282 284 286 289 293 297 301 303 303 305 308
253 251 251 252 254 255 257 257 253 247 246 248 252 259 264 265 265 265 262 256 253 254 256 259 260 259 255 252 251 250 247 244 240 236 230 227 231 241 249 254 256 257 259 259 259 259 259 260 261 262 264 265 266 267 268 270 270 271 272 272 274 275 276 276 276 275 273 270 268 267 268 270 273 277 280 283 286 289 293 296 299 301 301 302 304